[[{"header":{"parameterUnit":"m.s-1","parameterCategory":1,"la1":30.2991,"la2":30.254,"lo1":-89.0895,"lo2":-89.0444,"dy":0.0017,"dx":0.0017,"nx":28,"ny":28,"refTime":"2024-08-26T21:00:00:Z","depth":0,"parameterNumber":2,"parameterNumberName":"U-component_of_WINDS"},"data":[0,0,0,0,0,0,0,0,0,0,0,0,0,0,0,0,0,0,0,0,0,0,0,0,0,0,0,0,0,0,0,0,0,0,0,0,0,0,0,0,0,0,0,0,0,0,0,0,0,0,0,0,0,0,0,0,0,0,0.2642,0.2642,0,0.265,0.265,0.265,0.2658,0.2658,0.2658,0.2658,0.2666,0.2666,0.2666,0,0,0,0,0,0,0,0,0,0,0,0,0,0.2631,0.2631,0.2642,0.2642,0.2642,0.265,0.265,0.265,0.2658,0.2658,0.2658,0.2659,0.2666,0.2666,0.2666,0,0,0,0,0,0,0,0,0,0,0,0,0,0.2637,0.2631,0.2642,0.2647,0.2647,0.265,0.265,0.265,0.2658,0.2658,0.2658,0.2659,0.2666,0.2666,0.2666,0.2664,0,0,0.2667,0.2667,0,0,0,0,0,0,0,0,0.2637,0.2637,0.2646,0.2647,0.2647,0.2653,0.2649,0.2655,0.2658,0.2654,0.2658,0.2659,0.2662,0.2662,0.2663,0.2665,0.2665,0.2667,0.2667,0.2667,0.2667,0,0,0,0,0,0,0,0.2636,0.2637,0.2645,0.2646,0.2647,0.2648,0.2649,0.265,0.2657,0.2654,0.2655,0.2656,0.2662,0.2663,0.2664,0.2665,0.2667,0.2667,0.2667,0.2667,0.2664,0.2664,0,0,0,0,0,0,0.2635,0.2637,0.2645,0.2645,0.2642,0.2648,0.2649,0.2651,0.2657,0.2658,0.2656,0.2656,0.2663,0.2663,0.2664,0.2661,0.2667,0.2667,0.2667,0.2664,0.2664,0.2664,0,0,0,0,0,0,0.2635,0.2636,0.2645,0.2641,0.2642,0.2648,0.265,0.2651,0.2653,0.2658,0.2659,0.2656,0.2663,0.2664,0.2664,0.2662,0.2667,0.2667,0.2664,0.2664,0.2664,0.2656,0,0,0,0,0,0,0.2635,0.2636,0.2636,0.2641,0.2643,0.2645,0.265,0.2651,0.2653,0.2654,0.2658,0.2659,0.2663,0.2664,0.2664,0.2662,0.2668,0.2665,0.2664,0.2664,0.2657,0.2656,0.2655,0,0,0,0,0,0.2634,0.2633,0.2636,0.2636,0.2643,0.2645,0.2646,0.265,0.2653,0.2652,0.2655,0.2659,0.2662,0.2664,0.2664,0.2662,0.2665,0.2664,0.2664,0.2657,0.2656,0.2655,0,0,0,0,0,0,0.2627,0.2634,0.2637,0.2638,0.2641,0.2646,0.2646,0.2649,0.2651,0.2652,0.2657,0.2658,0.2658,0.266,0.2662,0.266,0.2664,0.2663,0.2658,0.2657,0.2656,0.2656,0.2668,0,0,0,0,0,0.2626,0.2628,0.2633,0.2633,0.2635,0.264,0.2641,0.2644,0.2648,0.2649,0.2652,0.2655,0.2656,0.2657,0.2658,0.2657,0.2658,0.2656,0.2655,0.2654,0.2654,0.2652,0.2651,0.2662,0.2662,0.2662,0,0,0.2623,0.2627,0.2628,0.2632,0.2635,0.2636,0.2641,0.2642,0.2643,0.2649,0.2649,0.2652,0.2655,0.2654,0.2654,0.2656,0.2651,0.2654,0.2653,0.2653,0.2652,0.265,0.2649,0.2662,0.2662,0.2662,0,0,0.2618,0.2621,0.2622,0.2624,0.2628,0.2631,0.2631,0.2636,0.2638,0.2638,0.2643,0.2643,0.2645,0.2647,0.2648,0.2643,0.2646,0.2643,0.2638,0.2637,0.2636,0.2635,0.2632,0.2631,0.2643,0.2643,0.2643,0,0.2614,0.2616,0.2621,0.2622,0.2623,0.2629,0.2628,0.263,0.2634,0.2635,0.2637,0.2639,0.2642,0.2641,0.264,0.2641,0.264,0.2643,0.2635,0.2635,0.2634,0.2631,0.263,0.2642,0.2642,0.2642,0.2642,0,0.261,0.2612,0.2611,0.2615,0.2616,0.2616,0.2621,0.2621,0.2624,0.2627,0.2626,0.2629,0.2631,0.2631,0.2634,0.263,0.2632,0.2635,0.2639,0.2632,0.263,0.2629,0.2642,0.2642,0.2642,0.2642,0,0,0.2602,0.2608,0.2607,0.2609,0.2613,0.2614,0.2613,0.2615,0.2615,0.2618,0.2617,0.2618,0.2621,0.2622,0.2625,0.2624,0.2618,0.2627,0.2627,0.2624,0.2613,0.261,0.2609,0.262,0.262,0.2619,0.2612,0,0.2597,0.2598,0.2602,0.2601,0.2602,0.2606,0.2606,0.2608,0.261,0.261,0.2613,0.2613,0.2617,0.2618,0.2616,0.2619,0.2615,0.2619,0.2619,0.2618,0.2617,0.2608,0.2605,0.2598,0.2611,0.2611,0.2611,0,0.2593,0.2594,0.2593,0.2596,0.2597,0.2597,0.2598,0.2598,0.26,0.2602,0.2603,0.2606,0.2605,0.2609,0.2607,0.261,0.2609,0.261,0.261,0.261,0.2614,0.2607,0.2596,0.2595,0.261,0.261,0.261,0,0.2586,0.2588,0.2587,0.2588,0.2592,0.2592,0.2593,0.2595,0.2595,0.2596,0.2597,0.2597,0.2598,0.2598,0.2601,0.2603,0.2598,0.2602,0.2599,0.2599,0.2597,0.2597,0.2586,0.2598,0.2598,0.2598,0.2598,0,0.258,0.2579,0.2584,0.2584,0.2582,0.2587,0.2585,0.2587,0.2588,0.2588,0.2592,0.2591,0.2595,0.2594,0.2596,0.2594,0.2594,0.2595,0.2595,0.2594,0.2594,0.2594,0.2595,0.2598,0.2598,0.2598,0.2598,0,0.2573,0.2576,0.2576,0.2579,0.258,0.2578,0.2581,0.258,0.2582,0.2581,0.2581,0.2584,0.2584,0.2586,0.2586,0.2588,0.2584,0.2586,0.2583,0.2584,0.258,0.258,0.2567,0.2566,0.2579,0.2579,0.2579,0,0.2569,0.2568,0.2571,0.2571,0.2572,0.2572,0.2572,0.2576,0.2576,0.2577,0.2576,0.2576,0.2576,0.2574,0.2576,0.2576,0.2577,0.2573,0.2577,0.2575,0.2576,0.2576,0.2575,0.2572,0.2571,0.2571,0.2571,0,0.2562,0.2563,0.2563,0.2564,0.2564,0.2565,0.2565,0.2565,0.2569,0.2568,0.2567,0.2567,0.2567,0.2566,0.2566,0.2566,0.2569,0.257,0.2569,0.2567,0.2566,0.2566,0.258,0.257,0.257,0.257,0.257,0.257,0.2555,0.2555,0.2556,0.2556,0.2557,0.2557,0.2556,0.2558,0.2557,0.2557,0.2559,0.2558,0.2558,0.2558,0.2559,0.2557,0.2559,0.2558,0.2557,0.2557,0.2556,0.2566,0.2557,0.2557,0.2557,0.2557,0.2557,0,0.2548,0.2549,0.2548,0.2549,0.2549,0.2551,0.2552,0.2551,0.255,0.255,0.255,0.2548,0.2547,0.2549,0.2548,0.2546,0.2547,0.2545,0.2545,0.2545,0.2555,0.2555,0.2544,0.2545,0.2545,0.2545,0.2545,0.2545,0.2544,0.2542,0.2543,0.2541,0.2542,0.2541,0.2541,0.2541,0.2541,0.2539,0.2538,0.2539,0.2539,0.2538,0.2537,0.2537,0.2536,0.2534,0.2535,0.2544,0.2545,0.2546,0.2547,0.2534,0.2534,0.2525,0.2525,0.2525]},{"header":{"parameterUnit":"m.s-1","parameterCategory":1,"la1":30.2991,"la2":30.254,"lo1":-89.0895,"lo2":-89.0444,"dy":0.0017,"dx":0.0017,"nx":28,"ny":28,"refTime":"2024-08-26T21:00:00:Z","depth":0,"parameterNumber":3,"parameterNumberName":"V-component_of_WINDS"},"data":[0,0,0,0,0,0,0,0,0,0,0,0,0,0,0,0,0,0,0,0,0,0,0,0,0,0,0,0,0,0,0,0,0,0,0,0,0,0,0,0,0,0,0,0,0,0,0,0,0,0,0,0,0,0,0,0,0,0,3.0298,3.0298,0,3.0289,3.0288,3.0288,3.0276,3.0275,3.0275,3.0275,3.0264,3.0264,3.0263,0,0,0,0,0,0,0,0,0,0,0,0,0,3.0306,3.0305,3.0298,3.0298,3.0298,3.0289,3.0288,3.0288,3.0276,3.0275,3.0275,3.0275,3.0264,3.0264,3.0263,0,0,0,0,0,0,0,0,0,0,0,0,0,3.03,3.0305,3.0298,3.0291,3.029,3.0289,3.0288,3.0288,3.0276,3.0275,3.0275,3.0275,3.0264,3.0264,3.0263,3.0268,0,0,3.0263,3.0263,0,0,0,0,0,0,0,0,3.03,3.0299,3.0292,3.0291,3.029,3.0283,3.0287,3.0282,3.0276,3.0281,3.0275,3.0275,3.027,3.027,3.0268,3.0268,3.0267,3.0263,3.0263,3.0263,3.0263,0,0,0,0,0,0,0,3.03,3.03,3.0294,3.0292,3.0291,3.0288,3.0286,3.0286,3.0277,3.0281,3.028,3.0279,3.027,3.0268,3.0268,3.0267,3.0263,3.0263,3.0263,3.0263,3.0271,3.0271,0,0,0,0,0,0,3.0302,3.03,3.0295,3.0294,3.0295,3.0288,3.0286,3.0286,3.0277,3.0276,3.0279,3.0278,3.0269,3.0268,3.0267,3.0273,3.0263,3.0263,3.0262,3.027,3.0271,3.0271,0,0,0,0,0,0,3.0302,3.0302,3.0295,3.0297,3.0296,3.0288,3.0287,3.0286,3.0284,3.0276,3.0275,3.0279,3.0269,3.0268,3.0268,3.0272,3.0262,3.0262,3.027,3.0271,3.0271,3.0284,0,0,0,0,0,0,3.0303,3.0302,3.0304,3.0297,3.0296,3.0296,3.0287,3.0286,3.0284,3.0283,3.0276,3.0275,3.0268,3.0269,3.0268,3.0272,3.0262,3.027,3.027,3.0271,3.0283,3.0285,3.0286,0,0,0,0,0,3.0303,3.0307,3.0304,3.0303,3.0298,3.0297,3.0296,3.0289,3.0285,3.0286,3.0281,3.0275,3.0272,3.0269,3.0268,3.0272,3.0269,3.027,3.0271,3.0282,3.0284,3.0286,0,0,0,0,0,0,3.0314,3.0306,3.0302,3.0305,3.0302,3.0295,3.0296,3.0291,3.0289,3.0288,3.0279,3.0278,3.0279,3.0276,3.0272,3.0277,3.027,3.027,3.0279,3.0281,3.0282,3.0283,3.0262,0,0,0,0,0,3.0317,3.0317,3.031,3.0313,3.0311,3.0304,3.0303,3.0299,3.0295,3.0293,3.0288,3.0284,3.0282,3.0281,3.0279,3.0283,3.0281,3.0285,3.0286,3.0288,3.0288,3.029,3.0291,3.0274,3.0274,3.0274,0,0,3.0322,3.0318,3.0319,3.0315,3.0312,3.0312,3.0303,3.0303,3.0303,3.0293,3.0293,3.029,3.0285,3.0287,3.0288,3.0284,3.0293,3.0289,3.029,3.0289,3.0291,3.0292,3.0294,3.0274,3.0274,3.0274,0,0,3.0333,3.033,3.0332,3.0329,3.0325,3.032,3.0321,3.0315,3.0312,3.0313,3.0305,3.0305,3.0302,3.0299,3.0297,3.0307,3.0301,3.0307,3.0315,3.0316,3.0318,3.0319,3.0322,3.0324,3.0307,3.0308,3.0308,0,3.034,3.034,3.0333,3.0334,3.0333,3.0325,3.0327,3.0324,3.0319,3.0318,3.0315,3.0312,3.0308,3.0309,3.0312,3.0311,3.0311,3.0307,3.0318,3.0319,3.032,3.0323,3.0325,3.0308,3.0308,3.0308,3.0308,0,3.0349,3.0349,3.0351,3.0347,3.0346,3.0348,3.0341,3.0341,3.0337,3.0333,3.0333,3.0329,3.0326,3.0326,3.0321,3.0327,3.0325,3.032,3.0313,3.0323,3.0326,3.0327,3.0309,3.0309,3.0309,3.0309,0,0,3.0364,3.0358,3.0359,3.0357,3.0352,3.0352,3.0353,3.0351,3.0351,3.0348,3.0349,3.0347,3.0343,3.0341,3.0336,3.0338,3.0346,3.0332,3.0332,3.0335,3.0352,3.0355,3.0357,3.0343,3.0343,3.0343,3.0352,0,3.0373,3.0375,3.037,3.0373,3.0373,3.0366,3.0367,3.0364,3.0361,3.036,3.0356,3.0355,3.0349,3.0348,3.0349,3.0345,3.0349,3.0344,3.0343,3.0343,3.0343,3.0358,3.0362,3.0371,3.0353,3.0353,3.0354,0,3.0383,3.0382,3.0385,3.0381,3.0381,3.0382,3.0379,3.0379,3.0376,3.0373,3.0372,3.0366,3.0367,3.0361,3.0362,3.0359,3.0358,3.0356,3.0356,3.0355,3.0348,3.0357,3.0373,3.0374,3.0355,3.0355,3.0355,0,3.0394,3.0393,3.0395,3.0394,3.0389,3.039,3.0388,3.0384,3.0383,3.0381,3.0381,3.0379,3.0378,3.0377,3.0371,3.0367,3.0373,3.0366,3.037,3.037,3.0371,3.0371,3.0386,3.0371,3.0371,3.0371,3.0371,0,3.0404,3.0406,3.0399,3.0401,3.0403,3.0397,3.04,3.0397,3.0394,3.0394,3.0388,3.0389,3.0382,3.0381,3.0377,3.0378,3.0378,3.0376,3.0374,3.0376,3.0376,3.0375,3.0374,3.0372,3.0372,3.0372,3.0371,0,3.0416,3.0411,3.0413,3.0409,3.0408,3.041,3.0406,3.0406,3.0403,3.0404,3.0403,3.0398,3.0397,3.0392,3.039,3.0387,3.039,3.0388,3.0391,3.039,3.0394,3.0394,3.0409,3.0411,3.0395,3.0396,3.0396,0,3.0422,3.0423,3.042,3.042,3.0418,3.0418,3.0418,3.0412,3.0412,3.0409,3.041,3.0409,3.0408,3.0408,3.0403,3.0402,3.0399,3.0405,3.0399,3.04,3.0399,3.0399,3.0399,3.0406,3.0406,3.0406,3.0406,0,3.0433,3.0431,3.0431,3.043,3.043,3.0429,3.0427,3.0428,3.0422,3.0422,3.0421,3.0421,3.0419,3.0418,3.0416,3.0414,3.0409,3.0408,3.0409,3.041,3.0412,3.0411,3.0394,3.0408,3.0407,3.0407,3.0407,3.0407,3.0442,3.0443,3.0441,3.0441,3.044,3.0439,3.0439,3.0436,3.0436,3.0435,3.0432,3.0432,3.0429,3.0426,3.0425,3.0425,3.0422,3.0423,3.0423,3.0423,3.0424,3.0413,3.0424,3.0424,3.0424,3.0424,3.0424,0,3.0453,3.0451,3.0451,3.045,3.045,3.0446,3.0445,3.0445,3.0445,3.0444,3.0443,3.0443,3.0442,3.0438,3.0437,3.0438,3.0436,3.0438,3.0437,3.0437,3.0427,3.0426,3.044,3.044,3.044,3.044,3.044,3.044,3.0458,3.046,3.0458,3.046,3.0458,3.0459,3.0458,3.0457,3.0456,3.0456,3.0456,3.0454,3.0451,3.045,3.0449,3.0448,3.0448,3.0451,3.0449,3.0439,3.0438,3.0436,3.0435,3.0451,3.0451,3.0459,3.0459,3.0459]}]]